Home   Weather   Wuhan   Past weeks

Flag for China Past Weather in Wuhan, Hubei, China — Yesterday and Last 2 Weeks

Now
59 °F

Passing clouds.


Feels Like: 58 °F
Forecast: 60 / 67 °F
Wind: 8 mph from North

Location: Wuhan Airport

Current Time: Apr 26, 2017 at 2:52:32 am

Latest Report: Apr 26, 2017 at 2:00 am


Visibility: N/A

Pressure: 29.98 "Hg

Humidity: 94%

Dew Point: 57 °F

Location of WuhanLocation

Past Weather in Wuhan — Graph

°F

Wuhan Temperature Yesterday

Maximum temperature yesterday: 72 °F (at 1:00 am)
Minimum temperature yesterday: 61 °F (at 5:00 pm)
Average temperature yesterday: 66 °F

High & Low Weather Summary for the Past Weeks

 TemperatureHumidityPressure
High86 °F (Apr 15, 3:00 pm)100% (Apr 11, 3:00 am)30.15 "Hg (Apr 11, 3:00 am)
Low46 °F (Apr 11, 3:00 am)29% (Apr 22, 3:00 pm)29.59 "Hg (Apr 19, 4:00 pm)
Average67 °F72%29.90 "Hg
* Reported Apr 11 1:00 am — Apr 26 1:00 am, Wuhan, Weather by CustomWeather, © 2017

Note: Actual official high and low records may vary slightly from our data, if they occured in-between our weather recording intervals... More about our weather records

Advertising

Wuhan Weather History for the Previous 24 Hours

Scroll right to see more
 ConditionsComfort  
Time TempWeatherWind HumidityBarometerVisibility
1:00 am
Wed, Apr 26
61 °FPassing clouds.8 mph88%29.98 "HgN/A
12:00 am61 °FClear.8 mph88%29.98 "Hg10 mi
11:00 pm
Tue, Apr 25
61 °FPassing clouds.8 mph94%29.98 "HgN/A
10:00 pm61 °FPassing clouds.8 mph94%29.98 "HgN/A
9:00 pm61 °FPassing clouds.10 mph94%29.98 "HgN/A
8:00 pm61 °FLight rain. Fog.10 mph94%29.95 "Hg3 mi
7:00 pm61 °FLight rain. Fog.8 mph94%29.92 "Hg3 mi
6:00 pm61 °FRain. Fog.13 mph94%29.89 "Hg2 mi
5:00 pm61 °FRain. Fog.13 mph94%29.89 "Hg2 mi
4:00 pm63 °FLight rain. Fog.8 mph94%29.86 "Hg2 mi
3:00 pm64 °FLight rain. Fog.8 mph94%29.86 "Hg1 mi
2:00 pm64 °FLight rain. Fog.6 mph94%29.86 "Hg1 mi
1:00 pm64 °FLight rain. Fog.8 mph88%29.89 "Hg2 mi
12:00 pm66 °FLight rain. Fog.3 mph88%29.89 "Hg2 mi
11:00 am66 °FLight rain. Fog.3 mph88%29.89 "Hg2 mi
10:00 am68 °FLight rain. Fog.1 mph83%29.89 "Hg2 mi
9:00 am68 °FLight rain. Fog.1 mph83%29.89 "Hg2 mi
8:00 am68 °FFog.No wind83%29.86 "Hg3 mi
7:00 am68 °FClear.3 mph78%29.86 "Hg4 mi
6:00 am66 °FClear.No wind78%29.83 "Hg4 mi
5:00 am68 °FClear.1 mph73%29.83 "Hg10 mi
4:00 am70 °FClear.8 mph64%29.80 "Hg10 mi
3:00 am70 °FClear.8 mph64%29.83 "Hg10 mi
2:00 am72 °FClear.10 mph61%29.83 "Hg10 mi
Weather by CustomWeather, © 2017

See weather overviewHow to use our weather pages